{"data":{"norad_id":59571,"intl_designator":"2024-076H","name":"STARLINK-31606","alt_names":[],"object_type":"PAYLOAD","status":"ACTIVE","operator":null,"country":"US","launch_date":"2024-04-23","launch_site_code":"AFETR","launch_vehicle":null,"mission":null,"orbit_class":"UNKNOWN","rcs_meters":null,"size_class":null,"mass_kg":null,"dimensions":null,"purposes":["comms"],"wikipedia_slug":null,"has_3d_model":false,"image_url":null,"decayed_at":null,"tle_current":{"epoch":"2026-05-25T04:00:03.998880Z","epoch_age_seconds":64619,"freshness":"FRESH","line1":"1 59571U 24076H   26145.16671295 -.00015004  00000+0 -53652-3 0  9996","line2":"2 59571  43.0003 296.6925 0001534 272.3180  86.2697 15.27596884  5844","mean_motion":15.27596884,"eccentricity":0.0001534,"inclination_deg":43.0003,"raan_deg":296.6925,"arg_perigee_deg":272.318,"mean_anomaly_deg":86.2697,"bstar":-0.00053652,"rev_number":584,"period_min":94.265706815883,"perigee_km":481.94604154353,"apogee_km":484.05103792712,"semimajor_km":6861.1355397353,"source":"CELESTRAK","updated_at":"2026-05-25T13:38:18.985934Z"}}}